Location: The Saddle
(36.8333°N, 80.3417°W)
Time: 11:09:31
(UTC-04:00)

Vanguard 3 - All Passes

Search period start: 12 October 2024 00:00
Search period end: 22 October 2024 00:00
Orbit: 507 x 3223 km, 33.3° (Epoch: 11 October)

Date Brightness Start Highest point End Pass type
(mag) Time Alt. Az. Time Alt. Az. Time Alt. Az.
12 Oct - 01:01:06 10° WSW 01:06:13 55° SSE 01:15:03 10° E visible
12 Oct - 03:10:58 10° W 03:18:09 71° S 03:31:20 10° ESE visible
12 Oct - 05:21:45 10° W 05:31:26 52° SSW 05:47:26 10° SE visible
12 Oct - 07:34:51 10° W 07:45:36 27° SSW 07:59:44 10° SSE daylight
12 Oct - 23:43:24 10° SW 23:47:23 32° SSE 23:53:19 10° E night (unlit)
13 Oct - 01:52:35 10° WSW 01:58:20 69° S 02:08:41 10° E visible
13 Oct - 04:02:49 10° W 04:10:47 62° SSW 04:25:01 10° ESE visible
13 Oct - 06:14:19 10° W 06:24:23 38° SSW 06:39:33 10° SSE visible
13 Oct - 08:30:59 10° WSW 08:38:35 15° SW 08:47:20 10° S daylight
13 Oct - 22:26:50 10° S 22:28:59 14° SE 22:31:28 10° ESE night (unlit)
14 Oct - 00:34:27 10° WSW 00:39:04 54° SSE 00:46:42 10° E night (unlit)
14 Oct - 02:44:15 10° W 02:50:40 68° S 03:02:22 10° ESE visible
14 Oct - 04:54:53 10° W 05:03:30 48° SSW 05:18:02 10° SE visible
14 Oct - 07:07:56 10° W 07:17:21 24° SSW 07:29:56 10° SSE daylight
14 Oct - 23:16:40 10° SW 23:20:19 31° SSE 23:25:23 10° E night (unlit)
15 Oct - 01:25:56 10° WSW 01:31:05 67° S 01:40:05 10° E visible
15 Oct - 03:36:02 10° W 03:43:08 58° SSW 03:55:49 10° ESE visible
15 Oct - 05:47:26 10° W 05:56:20 33° SSW 06:09:55 10° SSE visible
15 Oct - 08:04:58 10° WSW 08:10:21 13° SW 08:16:25 10° SSW daylight
15 Oct - 21:59:51 10° S 22:01:50 14° SSE 22:04:01 10° ESE night (unlit)
16 Oct - 00:07:45 10° WSW 00:11:56 52° SSE 00:18:31 10° E night (unlit)
16 Oct - 02:17:32 10° W 02:23:16 64° S 02:33:31 10° ESE visible
16 Oct - 04:28:03 10° W 04:35:42 43° SSW 04:48:36 10° SE visible
16 Oct - 06:41:12 10° WSW 06:49:14 21° SSW 06:59:54 10° S visible
16 Oct - 22:49:50 10° SW 22:53:13 30° SSE 22:57:37 10° E night (unlit)
17 Oct - 00:59:13 10° WSW 01:03:52 64° S 01:11:39 10° E night (unlit)
17 Oct - 03:09:16 10° W 03:15:34 52° SSW 03:26:42 10° ESE visible
17 Oct - 05:20:38 10° W 05:28:24 29° SSW 05:40:10 10° SSE visible
17 Oct - 21:32:38 10° S 21:34:39 14° SSE 21:36:46 10° ESE night (unlit)
17 Oct - 23:40:58 10° WSW 23:44:51 51° SSE 23:50:30 10° E night (unlit)
18 Oct - 01:50:49 10° W 01:55:56 60° S 02:04:48 10° ESE visible
18 Oct - 04:01:16 10° W 04:08:01 38° SSW 04:19:11 10° SE visible
18 Oct - 06:14:46 10° WSW 06:21:13 17° SSW 06:29:36 10° S visible
18 Oct - 22:22:51 10° SW 22:26:07 30° SSE 22:30:02 10° E night (unlit)
19 Oct - 00:32:27 10° WSW 00:36:41 61° S 00:43:22 10° E night (unlit)
19 Oct - 02:42:30 10° W 02:48:06 47° SSW 02:57:41 10° SE visible
19 Oct - 04:53:57 10° WSW 05:00:36 25° SSW 05:10:23 10° SSE visible
19 Oct - 21:05:12 10° SSW 21:07:27 15° SSE 21:09:43 10° ESE visible
19 Oct - 23:14:06 10° WSW 23:17:44 49° S 23:22:38 10° E night (unlit)
20 Oct - 01:24:02 10° W 01:28:39 55° S 01:36:14 10° ESE night (unlit)
20 Oct - 03:34:32 10° W 03:40:25 32° SSW 03:49:50 10° SE visible
20 Oct - 05:48:47 10° SW 05:53:19 14° SSW 05:58:51 10° S visible
20 Oct - 21:55:43 10° SW 21:59:00 31° SSE 22:02:35 10° E night (unlit)
21 Oct - 00:05:36 10° W 00:09:31 58° S 00:15:14 10° ESE night (unlit)
21 Oct - 02:15:45 10° W 02:20:42 41° SSW 02:28:48 10° SE visible
21 Oct - 04:27:26 10° WSW 04:32:53 20° SSW 04:40:32 10° SSE visible
21 Oct - 20:37:30 10° SSW 20:40:14 17° SSE 20:42:45 10° ESE visible
21 Oct - 22:47:05 10° WSW 22:50:37 49° S 22:54:56 10° E night (unlit)
